Вернуться в каталог

STARLINK-5413

АктивенСвязьVLEO
NORAD 54808·PAYLOAD·🇺🇸 United States

Запущен Dec 17, 2022 с Cape Canaveral Space Force Station

Loading…

Ближайшие Пролёты (ближайшие 24 часа)

TLE

СвежийSource: CelesTrak SupGP

Эпоха: Sep 14, 2026, 22:03 UTC

1 54808C 22175BC  26257.91923611  .00722990  00000+0  26403-1 0  2577
2 54808  53.1608 243.3496 0001271  97.9472  50.8613 15.27216667    17

Отслеживайте STARLINK-5413 в реальном времени с AllMySat

Download on the App Store